Elefsis, Greece

6:17 AM EEST on September 20, 2017 (GMT +0300)
Elefsis Air Base

Weather History for LGEL - October, 2012

Change the Weather History Date:

Sunday, October 14, 2012

  Actual Average Record
Temperature  
Mean Temperature 73 °F -  
Max Temperature 82 °F 68 °F 82 °F (2012)
Min Temperature 64 °F 53 °F 53 °F (2005)
Cooling Degree Days 8    
Growing Degree Days 23 (Base 50)    
Moisture  
Dew Point 62 °F    
Average Humidity 70    
Maximum Humidity 88    
Minimum Humidity 42    
Precipitation  
Precipitation 0.00 in - - ()
Sea Level Pressure  
Sea Level Pressure 29.91 in    
Wind  
Wind Speed 4 mph ()    
Max Wind Speed 12 mph    
Max Gust Speed -    
Visibility 6.0 miles    
Events Rain , Thunderstorm    
Averages and records for this station are not official NWS values.
T = Trace of Precipitation, MM = Missing Value Source: Averaged Metar Reports

Daily Weather History Graph

Daily Weather History Graph

Search for Another Location

Airport or City:

Trip Planner

Search our weather history database for the weather conditions in past years. The results will help you decide how hot, cold, wet, or windy it might be!

Date:

Astronomy

Oct. 14, 2012 Rise Set
Actual Time 7:33 AM EEST 6:49 PM EEST
Civil Twilight 7:07 AM EEST 7:15 PM EEST
Nautical Twilight 6:36 AM EEST 7:46 PM EEST
Astronomical Twilight 6:06 AM EEST 8:16 PM EEST
Moon 6:11 AM EEST (10/14) 5:57 PM EEST (10/14)
Length of Visible Light 12h 08m
Length of Day
11h 15m
Waning Crescent, 2% of the Moon is Illuminated
Oct 14
Waning Crescent
Oct 15
New
Oct 22
First Quarter
Oct 29
Full
Nov 7
Last Quarter

Hourly Weather History & Observations

Time (EEST) Temp. Heat Index Dew Point Humidity Pressure Visibility Wind Dir Wind Speed Gust Speed Precip Events Conditions
12:50 AM 66.2 °F - 59.0 °F 78% 29.95 in - NNW 5.8 mph - N/A   Clear
1:50 AM 64.4 °F - 59.0 °F 83% 29.95 in - Variable 3.5 mph - N/A   Clear
2:50 AM 66.2 °F - 59.0 °F 78% 29.95 in - Variable 3.5 mph - N/A   Clear
3:50 AM 66.2 °F - 59.0 °F 78% 29.92 in - Calm Calm - N/A   Clear
5:50 AM 64.4 °F - 59.0 °F 83% 29.92 in 6.2 mi Calm Calm - N/A   Partly Cloudy
6:20 AM 64.4 °F - 59.0 °F 83% 29.92 in 6.2 mi Calm Calm - N/A   Scattered Clouds
6:50 AM 64.4 °F - 59.0 °F 83% 29.92 in 6.2 mi Variable 3.5 mph - N/A   Scattered Clouds
7:20 AM 66.2 °F - 59.0 °F 78% 29.92 in 6.2 mi Calm Calm - N/A   Mostly Cloudy
7:50 AM 66.2 °F - 59.0 °F 78% 29.92 in 6.2 mi Calm Calm - N/A   Mostly Cloudy
8:20 AM 68.0 °F - 60.8 °F 78% 29.92 in 6.2 mi Calm Calm - N/A   Mostly Cloudy
8:50 AM 68.0 °F - 60.8 °F 78% 29.92 in 6.2 mi Calm Calm - N/A   Mostly Cloudy
9:50 AM 75.2 °F - 59.0 °F 57% 29.92 in 6.2 mi Calm Calm - N/A   Scattered Clouds
10:20 AM 77.0 °F - 59.0 °F 54% 29.92 in 6.2 mi Calm Calm - N/A   Scattered Clouds
10:50 AM 78.8 °F - 59.0 °F 51% 29.92 in 6.2 mi Calm Calm - N/A   Partly Cloudy
11:50 AM 80.6 °F 81.1 °F 59.0 °F 48% 29.92 in 6.2 mi South 4.6 mph - N/A   Partly Cloudy
12:20 PM 80.6 °F 81.1 °F 59.0 °F 48% 29.92 in 6.2 mi South 5.8 mph - N/A   Partly Cloudy
12:50 PM 82.4 °F 82.0 °F 57.2 °F 42% 29.92 in - South 8.1 mph - N/A   Clear
1:20 PM 80.6 °F 81.5 °F 60.8 °F 51% 29.92 in - South 9.2 mph - N/A   Clear
1:50 PM 80.6 °F 81.8 °F 62.6 °F 54% 29.89 in 6.2 mi South 10.4 mph - N/A   Scattered Clouds
2:20 PM 80.6 °F 81.8 °F 62.6 °F 54% 29.89 in 6.2 mi South 9.2 mph - N/A   Scattered Clouds
2:50 PM 78.8 °F - 64.4 °F 61% 29.89 in 6.2 mi South 10.4 mph - N/A   Mostly Cloudy
3:20 PM 78.8 °F - 64.4 °F 61% 29.89 in 6.2 mi SSE 10.4 mph - N/A   Mostly Cloudy
3:50 PM 80.6 °F 82.3 °F 64.4 °F 58% 29.89 in 6.2 mi SSE 10.4 mph - N/A   Mostly Cloudy
4:20 PM 80.6 °F 82.3 °F 64.4 °F 58% 29.86 in 6.2 mi South 9.2 mph - N/A   Scattered Clouds
4:50 PM 80.6 °F 82.3 °F 64.4 °F 58% 29.86 in 6.2 mi South 10.4 mph - N/A   Scattered Clouds
5:20 PM 78.8 °F - 64.4 °F 61% 29.86 in 6.2 mi SSE 10.4 mph - N/A   Scattered Clouds
5:50 PM 77.0 °F - 64.4 °F 65% 29.86 in 6.2 mi SSE 11.5 mph - N/A   Partly Cloudy
6:20 PM 77.0 °F - 66.2 °F 69% 29.86 in 6.2 mi SE 8.1 mph - N/A   Partly Cloudy
6:50 PM 77.0 °F - 66.2 °F 69% 29.86 in 6.2 mi ESE 5.8 mph - N/A   Scattered Clouds
7:20 PM 77.0 °F - 68.0 °F 74% 29.89 in 6.2 mi ESE 6.9 mph - N/A   Scattered Clouds
7:50 PM 75.2 °F - 68.0 °F 78% 29.89 in 6.2 mi Calm Calm - N/A Thunderstorm Thunderstorm
8:20 PM 69.8 °F - 60.8 °F 73% 29.95 in 3.7 mi Calm Calm - N/A Rain , Thunderstorm Thunderstorms and Rain
8:50 PM 68.0 °F - 60.8 °F 78% 29.92 in 4.3 mi NNW 8.1 mph - N/A Rain , Thunderstorm Light Thunderstorms and Rain
9:20 PM 68.0 °F - 62.6 °F 83% 29.92 in 4.3 mi WNW 6.9 mph - N/A Rain Light Rain
9:50 PM 68.0 °F - 62.6 °F 83% 29.95 in 6.2 mi SSE 5.8 mph - N/A Rain Light Rain
10:20 PM 68.0 °F - 62.6 °F 83% 29.95 in 6.2 mi Calm Calm - N/A Rain Light Rain
10:50 PM 68.0 °F - 64.4 °F 88% 29.95 in 6.2 mi Calm Calm - N/A   Mostly Cloudy
11:20 PM 68.0 °F - 64.4 °F 88% 29.95 in 6.2 mi Calm Calm - N/A   Mostly Cloudy
11:50 PM 68.0 °F - 64.4 °F 88% 29.89 in 6.2 mi Calm Calm - N/A   Mostly Cloudy